NVIDIA Return on Investment 2006-2019 | NVDA

Current and historical return on investment (ROI) values for NVIDIA (NVDA) over the last 10 years.
NVIDIA ROI - Return on Investment Historical Data
Date TTM Net Income LT Investments & Debt Return on Investment
2019-07-31 $2.28B $12.81B 19.10%
2019-04-30 $2.87B $12.18B 25.07%
2019-01-31 $3.80B $11.33B 35.16%
2018-10-31 $4.58B $11.46B 44.28%
2018-07-31 $4.42B $10.78B 46.19%
2018-04-30 $3.95B $9.70B 44.57%
2018-01-31 $3.21B $9.46B 37.89%
2017-10-31 $2.87B $8.34B 35.65%
2017-07-31 $2.61B $7.96B 33.49%
2017-04-30 $2.24B $8.13B 32.25%
2017-01-31 $1.93B $7.78B 32.26%
2016-10-31 $1.45B $7.36B 27.95%
2016-07-31 $1.06B $4.56B 21.92%
2016-04-30 $0.82B $4.28B 16.06%
2016-01-31 $0.75B $4.57B 13.58%
2015-10-31 $0.73B $5.88B 12.54%
2015-07-31 $0.70B $5.60B 12.14%
2015-04-30 $0.78B $5.96B 13.60%
2015-01-31 $0.76B $5.82B 13.40%
2014-10-31 $0.69B $5.60B 12.25%
2014-07-31 $0.62B $5.69B 11.62%
2014-04-30 $0.57B $5.55B 11.35%
2014-01-31 $0.50B $5.83B 10.35%
2013-10-31 $0.51B $4.34B 11.29%
2013-07-31 $0.63B $4.19B 13.42%
2013-04-30 $0.66B $4.84B 13.94%
2013-01-31 $0.65B $4.85B 14.13%
2012-10-31 $0.59B $4.74B 13.27%
2012-07-31 $0.53B $4.47B 12.56%
2012-04-30 $0.57B $4.31B 13.99%
2012-01-31 $0.65B $4.17B 16.89%
2011-10-31 $0.71B $4.00B 19.63%
2011-07-31 $0.61B $3.71B 18.42%
2011-04-30 $0.26B $3.47B 8.53%
2011-01-31 $0.26B $3.21B 8.68%
2010-10-31 $0.21B $2.92B 7.45%
2010-07-31 $0.21B $2.78B 7.92%
2010-04-30 $0.28B $2.89B 10.84%
2010-01-31 $-0.10B $2.69B -4.06%
2009-10-31 $-0.41B $2.45B -17.21%
2009-07-31 $-0.46B $2.27B -26.09%
2009-04-30 $-0.50B $2.34B -42.32%
2009-01-31 $-0.07B $2.42B -11.57%
2008-10-31 $0.37B inf%
2008-07-31 $0.56B inf%
2008-04-30 $0.90B inf%
2008-01-31 $0.84B inf%
2007-10-31 $0.71B inf%
2007-07-31 $0.58B inf%
2007-04-30 $0.49B inf%
2007-01-31 $0.46B inf%
2006-10-31 $0.43B inf%
2006-07-31 $0.38B inf%
2006-04-30 $0.36B inf%
2006-01-31 $0.34B inf%
2005-10-31 $0.26B inf%
Sector Industry Market Cap Revenue
Computer and Technology Semiconductor - General $112.220B $11.716B
NVIDIA Corporation is the worldwide leader in graphics processors and media communications devices. The NVIDIA? Tesla? accelerated computing platform gives modern data centers the power to accelerate both artificial intelligence and high-performance computing workloads. NVIDIA? DGX? Systems are built on the new, revolutionary NVIDIA Volta? GPU platform. Powered by NVIDIA? Tesla? GPUs and NVIDIA NVLink?, the HGX reference architecture standardizes the design of data centers accelerating AI in the cloud-from autonomous driving and personalized healthcare to superhuman voice recognition. NVIDIA GPU Cloud (NGC) is a GPU-accelerated platform that runs everywhere. Data scientists and researchers can now rapidly build, train, and deploy neural network models to address some of the most complicated AI challenges. Their researchers operate as a think tank, accelerating advances in product technologies, including AI innovations like facial animations and light transport.
Stock Name Country Market Cap PE Ratio
Intel (INTC) United States $234.834B 11.45
Texas Instruments (TXN) United States $121.576B 24.30
STMicroelectronics (STM) Switzerland $17.932B 16.00
SUMCO CORP ADR (SUOPY) Japan $3.965B 9.59
Thk (THKLY) Japan $3.400B 10.17
Amtech Systems (ASYS) United States $0.077B 0.00